This is the latest recevied weather packets stored in our database for station/object WV5G-13. If no packets are shown the sender has not sent any weather packets the latest 10 day(s).
| Time | Temp. | Humidity | Pressure | Rain* | Wind** | Luminosity | Snow |
|---|---|---|---|---|---|---|---|
| 1778015556 | 16.11° C | 42% | 1008.2 hPa | 0 mm | - | 418 W/m² | - |
| 1778015252 | 16.67° C | 42% | 1008.2 hPa | 0 mm | - | 487 W/m² | - |
| 1778014949 | 16.67° C | 41% | 1008 hPa | 0 mm | - | 382 W/m² | - |
| 1778014647 | 16.11° C | 42% | 1008.1 hPa | 0 mm | - | 443 W/m² | - |
| 1778014345 | 16.11° C | 42% | 1008.5 hPa | 0 mm | - | 395 W/m² | - |
| 1778014041 | 16.67° C | 41% | 1008 hPa | 0 mm | - | 466 W/m² | - |
| 1778013739 | 16.11° C | 42% | 1008.3 hPa | 0 mm | - | 517 W/m² | - |
| 1778013436 | 16.67° C | 42% | 1008.3 hPa | 0 mm | - | 549 W/m² | - |
| 1778013133 | 15.56° C | 43% | 1008.2 hPa | 0 mm | - | 451 W/m² | - |
| 1778012828 | 15.56° C | 43% | 1008.7 hPa | 0 mm | - | 386 W/m² | - |
| 1778012525 | 15.56° C | 43% | 1008.6 hPa | 0 mm | - | 503 W/m² | - |
| 1778012221 | 16.11° C | 43% | 1008.5 hPa | 0 mm | - | 521 W/m² | - |
| 1778011919 | 15.56° C | 43% | 1008.5 hPa | 0 mm | - | 440 W/m² | - |
| 1778011617 | 15.56° C | 43% | 1008.6 hPa | 0 mm | - | 410 W/m² | - |
| 1778011314 | 15.56° C | 43% | 1008.3 hPa | 0 mm | - | 443 W/m² | - |
| 1778011009 | 15.56° C | 42% | 1008.3 hPa | 0 mm | - | 477 W/m² | - |
| 1778010707 | 16.11° C | 42% | 1008.1 hPa | 0 mm | - | 485 W/m² | - |
| 1778010404 | 16.11° C | 42% | 1008 hPa | 0 mm | - | 571 W/m² | - |
| 1778010100 | 16.11° C | 44% | 1008.3 hPa | 0 mm | - | 636 W/m² | - |
| 1778009797 | 15.56° C | 44% | 1008.5 hPa | 0 mm | - | 565 W/m² | - |
| 1778009494 | 16.11° C | 43% | 1008.5 hPa | 0 mm | - | 610 W/m² | - |
| 1778009193 | 15.56° C | 44% | 1008.7 hPa | 0 mm | - | 677 W/m² | - |
| 1778008889 | 15.56° C | 44% | 1008.6 hPa | 0 mm | - | 517 W/m² | - |
| 1778008588 | 15.56° C | 43% | 1008.5 hPa | 0 mm | - | 684 W/m² | - |
| 1778008286 | 15.56° C | 44% | 1008.5 hPa | 0 mm | - | 828 W/m² | - |
* Rain latest hour (hover to see other rain measurements)
** Current wind speed in m/s (hover to see current wind gust speed)